Budapest Ferihegy, Hungary

4:35 AM CEST on October 17, 2017 (GMT +0200)
Ferihegy

Weather History for LHBP - June, 2013

Change the Weather History Date:

Friday, June 14, 2013

  Actual Average Record
Temperature  
Mean Temperature 68 °F -  
Max Temperature 82 °F 76 °F 96 °F (2000)
Min Temperature 55 °F 55 °F 51 °F (1998)
Cooling Degree Days 4    
Growing Degree Days 18 (Base 50)    
Moisture  
Dew Point 57 °F    
Average Humidity 67    
Maximum Humidity 100    
Minimum Humidity 37    
Precipitation  
Precipitation 0.00 in - - ()
Sea Level Pressure  
Sea Level Pressure 30.01 in    
Wind  
Wind Speed 4 mph ()    
Max Wind Speed 9 mph    
Max Gust Speed -    
Averages and records for this station are not official NWS values.
T = Trace of Precipitation, MM = Missing Value Source: Averaged Metar Reports

Daily Weather History Graph

Daily Weather History Graph

Search for Another Location

Airport or City:

Trip Planner

Search our weather history database for the weather conditions in past years. The results will help you decide how hot, cold, wet, or windy it might be!

Date:

Astronomy

Jun. 14, 2013 Rise Set
Actual Time 4:45 AM CEST 8:41 PM CEST
Civil Twilight 4:05 AM CEST 9:21 PM CEST
Nautical Twilight 3:09 AM CEST 10:17 PM CEST
Astronomical Twilight 1:43 AM CEST 11:43 PM CEST
Moon 10:22 AM CEST (6/14) 11:46 PM CEST (6/14)
Length of Visible Light 17h 16m
Length of Day
15h 55m
Waxing Crescent, 28% of the Moon is Illuminated
Jun 14
Waxing Crescent
Jun 16
First Quarter
Jun 23
Full
Jun 30
Last Quarter
Jul 8
New

Hourly Weather History & Observations

Time (CEST) Temp. Heat Index Dew Point Humidity Pressure Visibility Wind Dir Wind Speed Gust Speed Precip Events Conditions
12:00 AM 60.8 °F - 57.2 °F 88% 30.04 in - Variable 3.5 mph - N/A   Clear
12:30 AM 59.0 °F - 57.2 °F 94% 30.04 in - Variable 1.2 mph - N/A   Clear
1:00 AM 57.2 °F - 55.4 °F 94% 30.04 in - Variable 2.3 mph - N/A   Clear
1:30 AM 57.2 °F - 55.4 °F 94% 30.04 in - Variable 3.5 mph - N/A   Clear
2:00 AM 57.2 °F - 55.4 °F 94% 30.04 in - Variable 2.3 mph - N/A   Clear
2:30 AM 57.2 °F - 55.4 °F 94% 30.04 in - Variable 2.3 mph - N/A   Clear
3:00 AM 57.2 °F - 55.4 °F 94% 30.01 in - Variable 2.3 mph - N/A   Clear
3:30 AM 57.2 °F - 55.4 °F 94% 30.01 in - Variable 3.5 mph - N/A   Clear
4:00 AM 57.2 °F - 55.4 °F 94% 30.01 in - NNW 4.6 mph - N/A   Clear
4:30 AM 55.4 °F - 55.4 °F 100% 30.01 in - NNW 5.8 mph - N/A   Clear
5:00 AM 55.4 °F - 55.4 °F 100% 30.01 in - NW 4.6 mph - N/A   Clear
5:30 AM 57.2 °F - 57.2 °F 100% 30.01 in - Variable 3.5 mph - N/A   Clear
6:00 AM 59.0 °F - 57.2 °F 94% 30.01 in - Variable 2.3 mph - N/A   Clear
6:30 AM 62.6 °F - 59.0 °F 88% 30.01 in - Variable 1.2 mph - N/A   Clear
7:00 AM 64.4 °F - 60.8 °F 88% 30.01 in - Variable 2.3 mph - N/A   Clear
7:30 AM 66.2 °F - 60.8 °F 83% 30.01 in - Variable 2.3 mph - N/A   Clear
8:00 AM 69.8 °F - 60.8 °F 73% 30.04 in - Calm Calm - N/A   Clear
8:30 AM 71.6 °F - 60.8 °F 69% 30.04 in - Variable 2.3 mph - N/A   Clear
9:00 AM 75.2 °F - 57.2 °F 53% 30.04 in - WSW 4.6 mph - N/A   Clear
9:30 AM 75.2 °F - 59.0 °F 57% 30.04 in - WSW 4.6 mph - N/A   Clear
10:00 AM 77.0 °F - 53.6 °F 44% 30.04 in - SW 5.8 mph - N/A   Clear
10:30 AM 78.8 °F - 57.2 °F 47% 30.04 in - SW 6.9 mph - N/A   Clear
11:00 AM 77.0 °F - 53.6 °F 44% 30.04 in - SW 6.9 mph - N/A   Clear
11:30 AM 77.0 °F - 53.6 °F 44% 30.04 in - WSW 9.2 mph - N/A   Clear
12:00 PM 78.8 °F - 55.4 °F 44% 30.04 in - Variable 3.5 mph - N/A   Clear
12:30 PM 80.6 °F 80.5 °F 55.4 °F 42% 30.04 in - WSW 6.9 mph - N/A   Clear
1:00 PM 82.4 °F 81.7 °F 55.4 °F 39% 30.01 in - SW 8.1 mph - N/A   Clear
1:30 PM 78.8 °F - 53.6 °F 42% 30.01 in - South 4.6 mph - N/A   Clear
2:00 PM 82.4 °F 81.4 °F 53.6 °F 37% 30.01 in - SSW 4.6 mph - N/A   Clear
2:30 PM 82.4 °F 81.4 °F 53.6 °F 37% 30.01 in - WSW 9.2 mph - N/A   Clear
3:00 PM 80.6 °F 80.3 °F 53.6 °F 39% 30.01 in - WNW 8.1 mph - N/A   Clear
3:30 PM 82.4 °F 81.7 °F 55.4 °F 39% 30.01 in - North 5.8 mph - N/A   Clear
4:00 PM 80.6 °F 80.5 °F 55.4 °F 42% 30.01 in - NNW 5.8 mph - N/A   Clear
4:30 PM 82.4 °F 82.0 °F 57.2 °F 42% 29.98 in - WNW 9.2 mph - N/A   Clear
5:00 PM 78.8 °F - 57.2 °F 47% 29.98 in - North 8.1 mph - N/A   Clear
5:30 PM 78.8 °F - 59.0 °F 51% 29.98 in - NNE 4.6 mph - N/A   Clear
6:00 PM 80.6 °F 81.1 °F 59.0 °F 48% 29.98 in - NW 5.8 mph - N/A   Clear
6:30 PM 80.6 °F 80.8 °F 57.2 °F 45% 29.98 in - NNW 5.8 mph - N/A   Clear
7:00 PM 80.6 °F 81.1 °F 59.0 °F 48% 29.98 in - NW 5.8 mph - N/A   Clear
7:30 PM 78.8 °F - 59.0 °F 51% 29.98 in - NW 4.6 mph - N/A   Clear
8:00 PM 75.2 °F - 60.8 °F 61% 29.98 in - NW 6.9 mph - N/A   Clear
8:30 PM 71.6 °F - 62.6 °F 73% 29.98 in - North 4.6 mph - N/A   Clear
9:00 PM 71.6 °F - 60.8 °F 69% 29.98 in - NNW 4.6 mph - N/A   Clear
9:30 PM 69.8 °F - 60.8 °F 73% 30.01 in - NW 4.6 mph - N/A   Clear
10:00 PM 69.8 °F - 62.6 °F 78% 30.01 in - NW 6.9 mph - N/A   Clear
10:30 PM 68.0 °F - 62.6 °F 83% 30.01 in - NW 5.8 mph - N/A   Clear
11:00 PM 66.2 °F - 62.6 °F 88% 30.01 in - WNW 6.9 mph - N/A   Clear
11:30 PM 66.2 °F - 60.8 °F 83% 30.01 in - NW 5.8 mph - N/A   Clear